This is the latest recevied weather packets stored in our database for station/object K0VSC-1. If no packets are shown the sender has not sent any weather packets the latest 10 day(s).
| Time | Temp. | Humidity | Pressure | Rain* | Wind** | Luminosity | Snow |
|---|---|---|---|---|---|---|---|
| 1776971015 | 17.22° C | 91% | 994.6 hPa | 0 mm | - | 25 W/m² | - |
| 1776970715 | 17.22° C | 90% | 994.9 hPa | 0 mm | - | 14 W/m² | - |
| 1776970415 | 17.78° C | 90% | 994.8 hPa | 0 mm | - | 35 W/m² | - |
| 1776970115 | 17.78° C | 89% | 995 hPa | 0 mm | - | 118 W/m² | - |
| 1776969815 | 17.78° C | 87% | 995.4 hPa | 0 mm | - | 98 W/m² | - |
| 1776969515 | 18.33° C | 86% | 995.5 hPa | 0 mm | - | 74 W/m² | - |
| 1776969215 | 18.33° C | 86% | 995.5 hPa | 0 mm | - | 72 W/m² | - |
| 1776968915 | 18.33° C | 86% | 995.6 hPa | 0 mm | - | 39 W/m² | - |
| 1776968615 | 18.33° C | 86% | 995.7 hPa | 0 mm | - | 72 W/m² | - |
| 1776968315 | 18.33° C | 86% | 995.8 hPa | 0 mm | - | 83 W/m² | - |
| 1776968015 | 18.33° C | 86% | 995.8 hPa | 0 mm | - | 70 W/m² | - |
| 1776967715 | 18.33° C | 86% | 995.9 hPa | 0 mm | - | 88 W/m² | - |
| 1776967415 | 18.33° C | 86% | 995.8 hPa | 0 mm | - | 128 W/m² | - |
| 1776967115 | 18.33° C | 86% | 995.9 hPa | 0 mm | - | 111 W/m² | - |
| 1776966815 | 18.33° C | 86% | 996 hPa | 0 mm | - | 76 W/m² | - |
| 1776966515 | 18.33° C | 86% | 996 hPa | 0 mm | - | 76 W/m² | - |
| 1776966215 | 18.33° C | 85% | 996 hPa | 0 mm | - | 95 W/m² | - |
| 1776965915 | 18.89° C | 84% | 995.9 hPa | 0 mm | - | 188 W/m² | - |
| 1776965615 | 18.89° C | 84% | 996 hPa | 0 mm | - | 295 W/m² | - |
| 1776965315 | 18.89° C | 84% | 995.9 hPa | 0 mm | - | 264 W/m² | - |
| 1776965015 | 18.89° C | 84% | 995.8 hPa | 0 mm | - | 297 W/m² | - |
| 1776964715 | 18.89° C | 86% | 995.9 hPa | 0 mm | - | 503 W/m² | - |
| 1776964415 | 18.33° C | 86% | 996 hPa | 0 mm | - | 250 W/m² | - |
| 1776964115 | 17.78° C | 86% | 996.1 hPa | 0 mm | - | 230 W/m² | - |
| 1776963815 | 17.78° C | 85% | 996.2 hPa | 0 mm | - | 146 W/m² | - |
* Rain latest hour (hover to see other rain measurements)
** Current wind speed in m/s (hover to see current wind gust speed)